Flag for U.S.A. Weather past 2 weeks in Temple, Texas, U.S.A.

Now
73 °F

Light rain. Low clouds.


Feels Like: 70 °F
Forecast: 71 / 79 °F
Wind: 12 mph from Southeast

Location: Fort Hood AAF Airport

Current Time: May 23, 2015 at 10:36:03 AM

Latest Report: May 23, 2015 at 9:58 AM


Visibility: 10 mi

Pressure: 30.06 "Hg

Humidity: 94%

Dew point: 72 °F

Location of TempleLocation

Historic Weather in Temple — Graph

°F

Temple temperature yesterday

Maximum temperature yesterday: 72 °F (at 7:58 PM)
Minimum temperature yesterday: 60 °F (at 12:58 AM)
Average temperature yesterday: 67 °F

Past Weeks' High & Low Weather Summary

 TemperatureHumidityPressure
High87 °F (May 20, 3:58 PM)100% (May 8, 4:03 PM)30.23 "Hg (May 8, 4:03 PM)
Low59 °F (May 12, 7:58 AM)52% (May 10, 3:58 PM)29.72 "Hg (May 9, 4:58 PM)
Average71 °F87%29.97 "Hg
* Reported May 8 8:58 AM — May 23 8:59 AM, Temple, Weather by CustomWeather, © 2015

Note: Actual official high and low records may vary slightly from our data, if they occured in-between our weather recording intervals... More about our weather records

Advertising

Temple weather history for previous 24 hours

 ConditionsComfort  
Time TempWeatherWind HumidityBarometerVisibility
8:59 AM
Sat, May 23
72 °FLight rain. Partly sunny.10 mph100%30.09 "Hg10 mi
8:47 AM72 °FPartly sunny.9 mph100%30.09 "Hg10 mi
7:58 AM72 °FThundershowers. Low clouds.12 mph97%30.06 "Hg10 mi
7:04 AM72 °FFog.13 mph94%30.08 "Hg6 mi
5:58 AM71 °FLow clouds.10 mph96%30.04 "Hg10 mi
4:58 AM71 °FLow clouds.12 mph96%30.03 "Hg10 mi
3:58 AM71 °FLow clouds.8 mph96%30.03 "Hg10 mi
2:58 AM71 °FMostly cloudy.13 mph95%30.03 "Hg9 mi
1:58 AM71 °FLow clouds.13 mph95%30.05 "Hg9 mi
12:58 AM71 °FLow clouds.10 mph95%30.03 "Hg10 mi
12:03 AM72 °FLow clouds.12 mph94%30.07 "Hg9 mi
11:58 PM
Fri, May 22
71 °FOvercast.10 mph93%30.05 "Hg9 mi
10:58 PM72 °FPassing clouds.12 mph92%30.06 "Hg10 mi
10:03 PM72 °FPassing clouds.10 mph94%30.07 "Hg10 mi
9:58 PM72 °FPassing clouds.8 mph91%30.05 "Hg10 mi
8:58 PM72 °FOvercast.10 mph90%30.04 "Hg8 mi
7:58 PM72 °FOvercast.10 mph89%30.04 "Hg10 mi
6:58 PM72 °FOvercast.8 mph89%30.03 "Hg10 mi
5:58 PM72 °FOvercast.10 mph88%30.05 "Hg10 mi
4:58 PM70 °FLow clouds.8 mph91%30.06 "Hg10 mi
3:58 PM69 °FLow clouds.9 mph92%30.07 "Hg10 mi
2:58 PM70 °FLow clouds.8 mph90%30.08 "Hg10 mi
1:58 PM68 °FLow clouds.12 mph93%30.08 "Hg10 mi
12:58 PM67 °FLow clouds.15 mph96%30.09 "Hg8 mi
11:58 AM65 °FLow clouds.12 mph97%30.10 "Hg8 mi
10:58 AM64 °FLow clouds.9 mph98%30.09 "Hg7 mi
Weather by CustomWeather, © 2015

See weather overviewHow to use our weather pages